www.pogodaiklimat.ru

Погода и климат >> Архив погоды >> Мексика >> Chihuahua University


ПОГОДА в Chihuahua University

  • Прогноз погоды в Chihuahua University
  • Монитор погоды в Chihuahua University
  • Климат города

АРХИВ ПОГОДЫ в Chihuahua University

Время (UTC), дата Ветер
(напр.,м/с)
 
Видим.   Явления Облачность Т
(С)
Тd
(С)
f
(%)
Тe
(С)
Тes
(С)
Комфортность P
(гПа)
Po
(гПа)
Тmin
(С)
Tmax
(С)
R
(мм)
R24
(мм)
S
(см)
06 16.01 штиль 0 2000 м ясно +10.8 -2.8 38 +11 +11 1014.5 865.5 +1.0 +21.8
09 16.01 Ю 1 2000 м ясно +8.0 -1.6 51 +8 +8 1017.8 867.0
12 16.01 С 1 2000 м мгла ясно +3.4 -3.3 61 +2 +2 1021.4 868.2 +3.4 +21.8
15 16.01 С 1 6000 м мгла туман 4/0
[Cs]
+1.6 -2.7 73 0 +1 1026.0 870.4
18 16.01 СВ 3 8000 м мгла 10/0
[Cs]
+5.8 -2.4 56 +3 +9 1028.1 871.4 +1.6 +6.0
21 16.01 СВ 4 8000 м мгла 9/0 2000 м
[As op]
+7.8 -1.7 51 +5 +6 1024.9 868.5
03 17.01 штиль 0 2000 м 3/0
[Cs]
+1.0 -5.2 63 0 0 1026.2 869.8
06 17.01 В 3 2000 м ясно -0.8 -3.3 83 -6 -6 1028.2 870.9 -0.1 +10.0
09 17.01 В 1 2000 м ясно -2.2 -10.2 54 -4 -4 1029.6 870.8
12 17.01 штиль 0 2000 м 3/0
[Cs]
-2.8 -10.3 56 -3 -3 1030.5 870.4 -2.8 +10.0
15 17.01 штиль 0 8000 м мгла туман 5/0 2000 м
[Ac trans Cs]
-4.6 -9.6 68 -5 -4 1032.2 871.0
18 17.01 СВ 2 8000 м мгла ясно +5.8 -10.1 31 +4 +13 опасность
простуды
1030.2 869.8 -5.2 +6.0
21 17.01 СВ 3 8000 м мгла 5/0 2000 м
[Ac trans]
+10.6 -3.1 38 +9 +13 1023.8 865.9
00 18.01 СВ 4 10 км 3/0 2000 м
[Ac lent]
+9.6 -1.6 45 +7 +7 1022.0 866.0 -5.2 +11.4
03 18.01 штиль 0 2000 м 8/0
[Ac lent]
+5.2 0.0 69 +5 +5 1021.2 866.7
06 18.01 С 2 2000 м 5/5 1140 м
[Sc]
+6.2 -3.0 52 +4 +4 1022.2 867.7 -0.2 +11.4
09 18.01 штиль 0 2000 м в посл. час морось ясно +1.8 -3.6 67 +1 +1 1021.8 866.7 0.0
12 18.01 штиль 0 2000 м в посл. час морось 3/0
[Cs]
-0.3 -3.0 82 -1 -1 1023.1 866.4 0.0
15 18.01 штиль 0 8000 м мгла туман ясно -0.8 -4.4 77 -2 0 1025.8 867.7
18 18.01 СВ 1 8000 м мгла ясно +9.1 -1.0 49 +9 +19 опасность
простуды
1025.8 867.8 -2.2 +9.5
21 18.01 СВ 3 8000 м мгла ясно +14.1 +0.6 40 +13 +19 1020.1 864.2
00 19.01 С 5 10 км ясно +13.6 -2.0 34 +12 +12 1018.4 864.6 -2.2 +15.5
03 19.01 С 2 2000 м ясно +7.2 -0.5 58 +5 +5 1017.2 864.9
06 19.01 З 5 2000 м ясно +6.0 -1.0 61 +2 +2 1018.4 865.8 -2.2 +15.5
09 19.01 З 3 2000 м ясно +5.4 -1.3 62 +2 +2 1018.6 865.0
12 19.01 В 2 2000 м ясно +2.2 -0.5 82 -1 -1 1019.4 864.2 +1.6 +15.5
15 19.01 В 1 8000 м мгла туман 1/0
[Ac trans]
+2.8 -4.0 61 +2 +3 1021.2 864.7
18 19.01 СВ 3 8000 м мгла туман ясно +15.8 +1.0 37 +15 +23 1019.4 864.2 -0.4 +17.0
21 19.01 Ю 3 10 км ясно +21.9 -1.0 22 +21 +27 комфорт 1012.7 860.3
00 20.01 Ю 2 10 км ясно +22.4 -2.0 19 +21 +21 комфорт 1008.5 859.2 -0.4 +23.5
03 20.01 З 2 2000 м ясно +13.0 +13 +13 1008.0 860.4
06 20.01 З 4 2000 м ясно +9.4 +0.3 53 +7 +7 1009.2 861.0 -0.4 +23.5
09 20.01 З 4 2000 м ясно +8.6 -1.3 50 +6 +6 1010.1 860.5
12 20.01 ЮВ 1 2000 м ясно +4.8 -1.5 64 +4 +4 1011.8 859.9 +3.0 +23.5
15 20.01 СВ 1 10 км ясно +5.6 -1.5 60 +5 +6 1014.1 860.5
18 20.01 Ю 5 10 км ясно +19.1 +1.8 31 +19 +24 1013.2 860.8 +3.0 +20.2
21 20.01 З 5 10 км ясно +24.2 +4.9 29 +24 +28 комфорт 1006.2 856.5
00 21.01 Ю 4 10 км ясно +24.2 +2.2 24 +23 +23 комфорт 1002.4 855.5 +3.0 +25.2
03 21.01 З 6 2000 м 8/0
[Cs]
+19.2 -1.5 25 +19 +19 1002.2 857.2
06 21.01 ЮЗ 4 2000 м ясно +15.8 -1.3 31 +15 +15 1003.3 857.9 +3.0 +25.2
09 21.01 Ю 5 2000 м ясно +13.6 -0.7 37 +12 +12 1003.6 857.2
12 21.01 ЮЗ 5 2000 м ясно +12.6 +0.1 42 +11 +11 1005.3 857.3 +12.6 +25.2
15 21.01 ЮЗ 4 8000 м мгла 4/0 2000 м
[Ac trans]
+12.8 -1.7 37 +11 +12 1008.1 858.8
18 21.01 З 7 9000 м мгла 3/0
[Cs]
+18.2 +0.4 30 +18 +20 1009.4 859.9 +12.2 +18.5
21 21.01 З 7 10 км 3/0
[Cs]
+21.4 -3.3 19 +21 +22 комфорт 1005.2 857.1
00 22.01 СВ 5 10 км 3/0
[Cs]
+16.6 -0.5 31 +16 +16 1005.6 858.2 +12.2 +22.0
12 22.01 СВ 1 2000 м ясно -2.0 -12.4 45 -3 -3 1019.5 864.0 -2.0 +22.0
15 22.01 ЮЗ 1 6000 м мгла туман ясно +0.2 -9.0 50 -1 +1 1023.3 865.5
18 22.01 Ю 2 10 км ясно +7.4 -13.6 21 +6 +15 опасность
простуды
1024.2 866.3 -3.4 +8.5
21 22.01 В 4 3000 м ясно +12.0 -5.4 29 +11 +15 1019.3 863.2
00 23.01 СВ 5 10 км ясно +11.8 -7.4 25 +10 +10 1016.7 862.6 -3.2 +14.5

 

Местоположение метеостанции Chihuahua University (Мексика): широта 28.63 долгота -106.00 высота над уровнем моря 1433 м.

В архиве по умолчанию представлена погода в Chihuahua University за последнюю неделю. Архивные данные за месяц целиком и за предыдущие месяцы, начиная с января 2011 года, Вы можете получить, выбрав интересующий диапазон дат из раскрывающегося списка и нажав кнопку "Ввод!".

Внимание! Время в таблицах - всемирное. Для получения местного времени необходимо прибавить поправку, которая в Chihuahua University равна -6 ч.

Смотрите также архив погоды в соседних городах и на ближайших метеорологических станциях:

Погода в Chihuahua (Мексика) (11 км)
Погода в Temosachic (Мексика) (179 км)
Погода в Hidalgo del Parral (Мексика) (193 км)
Погода в Nueva Casas Grandes (Мексика) (267 км)
Погода в Choix (Мексика) (303 км)
Погода в Tepehuanes (Мексика) (367 км)
Погода в Ciudad Obregon (Мексика) (401 км)
Погода в Pilares de Nacoz (Мексика) (405 км)
Погода в Torreon (Мексика) (430 км)
Погода в Culiacan (Мексика) (448 км)

Пояснения к столбцам:

Ветер - указаны скорость ветра в м/с - средняя за 10 мин, порывы в срок и между сроками (в фигурных скобках) и направление, откуда дует ветер: С - северный, СВ - северо-восточный, В - восточный, ЮВ - юго-восточный, Ю - южный, ЮЗ - юго-западный, З - западный, СЗ - северо-западный.
Видимость - горизонтальная дальность видимости в метрах или километрах. При видимости от 1 до 10 км при отсутствии осадков обычно наблюдается дымка, при ухудшении видимости до 1 км и менее - туман. В сухую погоду видимость может ухудшаться дымом, пылью или мглою.
Явления - указаны атмосферные явления, наблюдавшиеся в срок или в последний час перед сроком; фигурными скобками обозначены явления, наблюдавшиеся между сроками (за 1-3 часа до срока); квадратными скобками обозначены град или гололедные отложения с указанием их диаметра в мм.
Облачность - указаны через наклонную черту общая и нижняя облачность в баллах и высота нижней границы облаков в метрах; квадратными скобками обозначены формы облаков: Ci - перистые, Cs - перисто-слоистые, Cc - перисто-кучевые, Ac - высококучевые, As - высокослоистые, Sc - слоисто-кучевые, Ns - слоисто-дождевые, Cu - кучевые, Cb - кучево-дождевые. Подробнее классификацию облаков см. в Атласе облаков (PDF).
T - Температура воздуха - температура, измеренная на высоте 2 м над землей.
Td - Температура точки росы - температура, при понижении до которой содержащийся в воздухе водяной пар достигнет насыщения.
f - Относительная влажность воздуха - влажноcть воздуха, измеренная на высоте 2 м над землей.
Te - Эффективная температура - температура, которую ощущает одетый по сезону человек в тени. Характеристика душности погоды. При расчете учитывается влияние влажности воздуха и скорости ветра на теплоощущения человека.
Tes - Эффективная температура на солнце - температура, которую ощущает человек, с поправкой на солнечный нагрев. Характеристика знойности погоды. Зависит от высоты солнца над горизонтом, облачности и скорости ветра. Ночью, в пасмурную погоду, а также при ветре 12 м/с и более поправка равна нулю.
P - Атмосферное давление - приведенное к уровню моря атмосферное давление.
Po - Атмосферное давление - измеренное на уровне метеостанции атмосферное давление.
Tmin - Минимальная температура - минимум температуры воздуха на высоте 2 м над землей.
Tmax - Максимальная температура - максимум температуры воздуха на высоте 2 м над землей.
R - Количество осадков - Количество выпавших осадков за период времени, мм. При наведении курсора мыши на число - период времени, за который выпало указанное количество осадков.
R24 - Количество осадков - Количество выпавших осадков за 24 часа, мм.
S - Снежный покров - Высота снежного покрова, см. При наведении курсора мыши на число - состояние снежного покрова и степень покрытия местности в баллах.